Time,TemperatureF,DewpointF,PressureIn,WindDirection,WindDirectionDegrees,WindSpeedMPH,WindSpeedGustMPH,Humidity,HourlyPrecipIn,Conditions,Clouds,dailyrainin,SolarRadiationWatts/m^2,SoftwareType,DateUTC
2013-09-03 00:22:00,56.0,44.0,-100.00,ESE,105,0.0,0.0,63,0.00,,,0.70,0.000000,,2013-09-03 08:22:00,
2013-09-03 00:32:00,56.0,44.0,-100.00,ESE,105,0.0,0.0,63,0.00,,,0.70,0.000000,,2013-09-03 08:32:00,
2013-09-03 00:42:00,56.0,44.0,-100.00,ESE,105,0.0,0.0,63,0.00,,,0.70,0.000000,,2013-09-03 08:42:00,
2013-09-03 00:52:00,56.0,44.0,-100.00,ESE,105,0.0,0.0,63,0.00,,,0.70,0.000000,,2013-09-03 08:52:00,
2013-09-03 01:21:00,55.0,42.0,-100.00,East,86,0.0,0.0,61,0.00,,,0.70,0.000000,,2013-09-03 09:21:00,
2013-09-03 01:33:00,55.0,42.0,-100.00,East,86,0.0,0.0,61,0.00,,,0.70,0.000000,,2013-09-03 09:33:00,
2013-09-03 01:43:00,55.0,42.0,-100.00,East,86,0.0,0.0,61,0.00,,,0.70,0.000000,,2013-09-03 09:43:00,
2013-09-03 01:53:00,55.0,42.0,-100.00,East,86,0.0,0.0,61,0.00,,,0.70,0.000000,,2013-09-03 09:53:00,
2013-09-03 02:23:00,55.0,42.0,-100.00,ENE,59,0.0,0.0,61,0.00,,,0.70,0.000000,,2013-09-03 10:23:00,
2013-09-03 02:33:00,55.0,42.0,-100.00,ENE,59,0.0,0.0,61,0.00,,,0.70,0.000000,,2013-09-03 10:33:00,
2013-09-03 02:42:00,55.0,42.0,-100.00,ENE,59,0.0,0.0,61,0.00,,,0.70,0.000000,,2013-09-03 10:42:00,
2013-09-03 02:53:00,55.0,42.0,-100.00,ENE,59,0.0,0.0,61,0.00,,,0.70,0.000000,,2013-09-03 10:53:00,
2013-09-03 03:22:00,55.0,41.0,-100.00,East,97,0.0,0.0,60,0.00,,,0.70,0.000000,,2013-09-03 11:22:00,
2013-09-03 03:33:00,55.0,41.0,-100.00,East,97,0.0,0.0,60,0.00,,,0.70,0.000000,,2013-09-03 11:33:00,
2013-09-03 03:42:00,55.0,41.0,-100.00,East,97,0.0,0.0,60,0.00,,,0.70,0.000000,,2013-09-03 11:42:00,
2013-09-03 03:52:00,55.0,41.0,-100.00,East,97,0.0,0.0,60,0.00,,,0.70,0.000000,,2013-09-03 11:52:00,
2013-09-03 04:21:00,54.0,44.0,-100.00,NNE,27,0.0,0.0,68,0.00,,,0.70,0.000000,,2013-09-03 12:21:00,
2013-09-03 04:31:00,54.0,44.0,-100.00,NNE,27,0.0,0.0,68,0.00,,,0.70,0.000000,,2013-09-03 12:31:00,
2013-09-03 04:42:00,54.0,44.0,-100.00,NNE,27,0.0,0.0,68,0.00,,,0.70,0.000000,,2013-09-03 12:42:00,
2013-09-03 04:52:00,54.0,44.0,-100.00,NNE,27,0.0,0.0,68,0.00,,,0.70,0.000000,,2013-09-03 12:52:00,
2013-09-03 05:21:00,54.0,43.0,-100.00,SSE,149,0.0,0.0,65,0.00,,,0.70,0.000000,,2013-09-03 13:21:00,
2013-09-03 05:32:00,54.0,43.0,-100.00,SSE,149,0.0,0.0,65,0.00,,,0.70,0.000000,,2013-09-03 13:32:00,
2013-09-03 05:42:00,54.0,43.0,-100.00,SSE,149,0.0,0.0,65,0.00,,,0.70,0.000000,,2013-09-03 13:42:00,
2013-09-03 05:52:00,54.0,43.0,-100.00,SSE,149,0.0,0.0,65,0.00,,,0.70,0.000000,,2013-09-03 13:52:00,
2013-09-03 06:21:00,52.0,43.0,-100.00,North,9,0.0,0.0,70,0.01,,,0.70,0.000000,,2013-09-03 14:21:00,
2013-09-03 06:32:00,52.0,43.0,-100.00,North,9,0.0,0.0,70,0.01,,,0.70,0.000000,,2013-09-03 14:32:00,
2013-09-03 06:42:00,52.0,43.0,-100.00,North,9,0.0,0.0,70,0.01,,,0.70,0.000000,,2013-09-03 14:42:00,
2013-09-03 06:51:00,52.0,43.0,-100.00,North,9,0.0,0.0,70,0.01,,,0.70,0.000000,,2013-09-03 14:51:00,
2013-09-03 07:22:00,54.0,45.0,-100.00,NNW,340,0.0,0.0,71,0.01,,,0.70,0.000000,,2013-09-03 15:22:00,
2013-09-03 07:34:00,54.0,45.0,-100.00,NNW,340,0.0,0.0,71,0.01,,,0.70,0.000000,,2013-09-03 15:34:00,
2013-09-03 07:43:00,54.0,45.0,-100.00,NNW,340,0.0,0.0,71,0.01,,,0.70,0.000000,,2013-09-03 15:43:00,
2013-09-03 07:53:00,54.0,45.0,-100.00,NNW,340,0.0,0.0,71,0.01,,,0.70,0.000000,,2013-09-03 15:53:00,
2013-09-03 08:24:00,55.0,43.0,-100.00,East,80,0.0,0.0,64,0.00,,,0.69,12.000000,,2013-09-03 16:24:00,
2013-09-03 08:33:00,55.0,43.0,-100.00,East,80,0.0,0.0,64,0.00,,,0.69,12.000000,,2013-09-03 16:33:00,
2013-09-03 08:43:00,55.0,43.0,-100.00,East,80,0.0,0.0,64,0.00,,,0.69,12.000000,,2013-09-03 16:43:00,
2013-09-03 08:54:00,55.0,43.0,-100.00,East,80,0.0,0.0,64,0.00,,,0.69,12.000000,,2013-09-03 16:54:00,
2013-09-03 09:23:00,57.0,44.0,-100.00,SE,134,0.0,0.0,61,0.00,,,0.69,57.000000,,2013-09-03 17:23:00,
2013-09-03 09:34:00,57.0,44.0,-100.00,SE,134,0.0,0.0,61,0.00,,,0.69,57.000000,,2013-09-03 17:34:00,
2013-09-03 09:43:00,57.0,44.0,-100.00,SE,134,0.0,0.0,61,0.00,,,0.69,57.000000,,2013-09-03 17:43:00,
2013-09-03 09:52:00,57.0,44.0,-100.00,SE,134,0.0,0.0,61,0.00,,,0.69,57.000000,,2013-09-03 17:52:00,
2013-09-03 10:22:00,59.0,44.0,-100.00,ESE,121,0.0,0.0,57,0.00,,,0.69,278.000000,,2013-09-03 18:22:00,
2013-09-03 10:32:00,59.0,44.0,-100.00,ESE,121,0.0,0.0,57,0.00,,,0.69,278.000000,,2013-09-03 18:32:00,
2013-09-03 10:43:00,59.0,44.0,-100.00,ESE,121,0.0,0.0,57,0.00,,,0.69,278.000000,,2013-09-03 18:43:00,
2013-09-03 10:52:00,59.0,44.0,-100.00,ESE,121,0.0,0.0,57,0.00,,,0.69,278.000000,,2013-09-03 18:52:00,
2013-09-03 11:22:00,61.0,44.0,-100.00,SE,129,0.0,0.0,54,0.00,,,0.69,470.000000,,2013-09-03 19:22:00,
2013-09-03 11:32:00,61.0,44.0,-100.00,SE,129,0.0,0.0,54,0.00,,,0.69,470.000000,,2013-09-03 19:32:00,
2013-09-03 11:42:00,61.0,44.0,-100.00,SE,129,0.0,0.0,54,0.00,,,0.69,470.000000,,2013-09-03 19:42:00,
2013-09-03 11:52:00,61.0,44.0,-100.00,SE,129,0.0,0.0,54,0.00,,,0.69,470.000000,,2013-09-03 19:52:00,
2013-09-03 12:22:00,62.0,44.0,-100.00,SSE,150,0.0,0.0,52,0.00,,,0.69,560.000000,,2013-09-03 20:22:00,
2013-09-03 12:32:00,62.0,44.0,-100.00,SSE,150,0.0,0.0,52,0.00,,,0.69,560.000000,,2013-09-03 20:32:00,
2013-09-03 12:42:00,62.0,44.0,-100.00,SSE,150,0.0,0.0,52,0.00,,,0.69,560.000000,,2013-09-03 20:42:00,
2013-09-03 12:52:00,62.0,44.0,-100.00,SSE,150,0.0,0.0,52,0.00,,,0.69,560.000000,,2013-09-03 20:52:00,
2013-09-03 13:22:00,63.0,45.0,-100.00,SSE,150,0.0,0.0,52,0.00,,,0.69,549.000000,,2013-09-03 21:22:00,
2013-09-03 13:34:00,63.0,45.0,-100.00,SSE,150,0.0,0.0,52,0.00,,,0.69,549.000000,,2013-09-03 21:34:00,
2013-09-03 13:44:00,63.0,45.0,-100.00,SSE,150,0.0,0.0,52,0.00,,,0.69,549.000000,,2013-09-03 21:44:00,
2013-09-03 13:54:00,63.0,45.0,-100.00,SSE,150,0.0,0.0,52,0.00,,,0.69,549.000000,,2013-09-03 21:54:00,
2013-09-03 14:23:00,61.0,46.0,-100.00,SSE,162,0.0,0.0,57,0.00,,,0.69,362.000000,,2013-09-03 22:23:00,
2013-09-03 14:34:00,61.0,46.0,-100.00,SSE,162,0.0,0.0,57,0.00,,,0.69,362.000000,,2013-09-03 22:34:00,
2013-09-03 14:42:00,61.0,46.0,-100.00,SSE,162,0.0,0.0,57,0.00,,,0.69,362.000000,,2013-09-03 22:42:00,
2013-09-03 14:52:00,61.0,46.0,-100.00,SSE,162,0.0,0.0,57,0.00,,,0.69,362.000000,,2013-09-03 22:52:00,
2013-09-03 15:22:00,55.0,41.0,-100.00,SSW,202,0.0,0.0,60,0.00,,,0.68,323.000000,,2013-09-03 23:22:00,
2013-09-03 15:34:00,55.0,41.0,-100.00,SSW,202,0.0,0.0,60,0.00,,,0.68,323.000000,,2013-09-03 23:34:00,
2013-09-03 15:42:00,55.0,41.0,-100.00,SSW,202,0.0,0.0,60,0.00,,,0.68,323.000000,,2013-09-03 23:42:00,
2013-09-03 15:53:00,55.0,41.0,-100.00,SSW,202,0.0,0.0,60,0.00,,,0.68,323.000000,,2013-09-03 23:53:00,
2013-09-03 16:22:00,50.0,49.0,-100.00,North,6,0.0,0.0,96,0.00,,,0.59,90.000000,,2013-09-04 00:22:00,
2013-09-03 16:32:00,50.0,49.0,-100.00,North,6,0.0,0.0,96,0.00,,,0.59,90.000000,,2013-09-04 00:32:00,
2013-09-03 16:42:00,50.0,49.0,-100.00,North,6,0.0,0.0,96,0.00,,,0.59,90.000000,,2013-09-04 00:42:00,
2013-09-03 16:52:00,50.0,49.0,-100.00,North,6,0.0,0.0,96,0.00,,,0.59,90.000000,,2013-09-04 00:52:00,
2013-09-03 17:22:00,54.0,52.0,-100.00,SSW,207,0.0,0.0,94,0.01,,,0.53,187.000000,,2013-09-04 01:22:00,
2013-09-03 17:32:00,54.0,52.0,-100.00,SSW,207,0.0,0.0,94,0.01,,,0.53,187.000000,,2013-09-04 01:32:00,
2013-09-03 17:42:00,54.0,52.0,-100.00,SSW,207,0.0,0.0,94,0.01,,,0.53,187.000000,,2013-09-04 01:42:00,
2013-09-03 17:52:00,54.0,52.0,-100.00,SSW,207,0.0,0.0,94,0.01,,,0.53,187.000000,,2013-09-04 01:52:00,
2013-09-03 18:22:00,58.0,42.0,-100.00,SSE,161,0.0,0.0,55,0.00,,,0.47,283.000000,,2013-09-04 02:22:00,
2013-09-03 18:32:00,58.0,42.0,-100.00,SSE,161,0.0,0.0,55,0.00,,,0.47,283.000000,,2013-09-04 02:32:00,
2013-09-03 18:42:00,58.0,42.0,-100.00,SSE,161,0.0,0.0,55,0.00,,,0.47,283.000000,,2013-09-04 02:42:00,
2013-09-03 18:52:00,58.0,42.0,-100.00,SSE,161,0.0,0.0,55,0.00,,,0.47,283.000000,,2013-09-04 02:52:00,
2013-09-03 19:22:00,56.0,39.0,-100.00,SSE,163,0.0,0.0,53,0.00,,,0.31,252.000000,,2013-09-04 03:22:00,
2013-09-03 19:34:00,56.0,39.0,-100.00,SSE,163,0.0,0.0,53,0.00,,,0.31,252.000000,,2013-09-04 03:34:00,
2013-09-03 19:44:00,56.0,39.0,-100.00,SSE,163,0.0,0.0,53,0.00,,,0.31,252.000000,,2013-09-04 03:44:00,
2013-09-03 19:54:00,56.0,39.0,-100.00,SSE,163,0.0,0.0,53,0.00,,,0.31,252.000000,,2013-09-04 03:54:00,
2013-09-03 20:24:00,54.0,40.0,-100.00,SSE,165,0.0,0.0,58,0.00,,,0.07,62.000000,,2013-09-04 04:24:00,
2013-09-03 20:33:00,54.0,40.0,-100.00,SSE,165,0.0,0.0,58,0.00,,,0.07,62.000000,,2013-09-04 04:33:00,
2013-09-03 20:44:00,54.0,40.0,-100.00,SSE,165,0.0,0.0,58,0.00,,,0.07,62.000000,,2013-09-04 04:44:00,
2013-09-03 20:54:00,54.0,40.0,-100.00,SSE,165,0.0,0.0,58,0.00,,,0.07,62.000000,,2013-09-04 04:54:00,
2013-09-03 21:23:00,54.0,39.0,-100.00,SSE,166,0.0,0.0,57,0.00,,,0.03,17.000000,,2013-09-04 05:23:00,
2013-09-03 21:34:00,54.0,39.0,-100.00,SSE,166,0.0,0.0,57,0.00,,,0.03,17.000000,,2013-09-04 05:34:00,
2013-09-03 21:43:00,54.0,39.0,-100.00,SSE,166,0.0,0.0,57,0.00,,,0.03,17.000000,,2013-09-04 05:43:00,
2013-09-03 21:52:00,54.0,39.0,-100.00,SSE,166,0.0,0.0,57,0.00,,,0.03,17.000000,,2013-09-04 05:52:00,
2013-09-03 22:22:00,54.0,39.0,-100.00,SE,132,0.0,0.0,57,0.00,,,0.03,1.000000,,2013-09-04 06:22:00,
2013-09-03 22:32:00,54.0,39.0,-100.00,SE,132,0.0,0.0,57,0.00,,,0.03,1.000000,,2013-09-04 06:32:00,
2013-09-03 22:42:00,54.0,39.0,-100.00,SE,132,0.0,0.0,57,0.00,,,0.03,1.000000,,2013-09-04 06:42:00,
2013-09-03 22:52:00,54.0,39.0,-100.00,SE,132,0.0,0.0,57,0.00,,,0.03,1.000000,,2013-09-04 06:52:00,
2013-09-03 23:22:00,54.0,39.0,-100.00,SSE,166,0.0,0.0,56,0.00,,,0.03,0.000000,,2013-09-04 07:22:00,
2013-09-03 23:32:00,54.0,39.0,-100.00,SSE,166,0.0,0.0,56,0.00,,,0.03,0.000000,,2013-09-04 07:32:00,
2013-09-03 23:42:00,54.0,39.0,-100.00,SSE,166,0.0,0.0,56,0.00,,,0.03,0.000000,,2013-09-04 07:42:00,
2013-09-03 23:52:00,54.0,39.0,-100.00,SSE,166,0.0,0.0,56,0.00,,,0.03,0.000000,,2013-09-04 07:52:00,